EW6762 Weather Reports


time (UTC)temp
F
wind
direction
speed
knots
gust
knots
rain 1hr
in
rain 24hr
in
rain mn
in
humidity
%
barometer
mb
20260507210315 69 316 4.3 13.0 0.00 2.87 0.70 83 1008.6
20260507205332 71 310 7.0 10.4 0.00 2.87 0.70 83 1008.6
20260507204325 73 23 5.2 15.6 0.00 2.87 0.70 81 1008.5
20260507203322 75 322 5.2 12.2 0.00 2.87 0.70 80 1008.2
20260507202323 78 288 3.5 7.8 0.00 2.87 0.70 83 1007.8
20260507201332 77 190 2.6 7.0 0.00 2.87 0.70 85 1007.7
20260507200312 76 164 2.6 6.1 0.00 2.87 0.70 87 1008.0
20260507195327 76 230 2.6 6.1 0.00 2.87 0.70 86 1008.1
20260507194329 76 237 3.5 6.1 0.00 2.87 0.70 83 1007.9
20260507193318 76 281 2.6 4.3 0.00 2.87 0.70 85 1008.1
20260507192314 76 240 2.6 6.1 0.04 2.87 0.70 86 1008.2
20260507191317 76 293 3.5 7.8 0.04 2.87 0.70 85 1008.6
20260507190336 76 250 4.3 7.0 0.04 2.87 0.70 87 1008.4
20260507185326 76 200 2.6 6.1 0.04 2.87 0.70 89 1008.1
20260507184342 75 209 3.5 7.0 0.04 2.87 0.70 91 1008.7
20260507183312 74 254 2.6 8.7 0.04 2.87 0.70 92 1008.7
20260507182347 74 254 1.7 8.7 0.00 2.83 0.69 94 1009.2
20260507181321 73 249 3.5 7.0 0.00 2.83 0.69 94 1009.2
20260507180310 72 234 3.5 6.1 0.00 2.83 0.69 94 1008.7
20260507175328 72 241 1.7 7.0 0.00 2.83 0.69 94 1008.8
20260507174343 72 182 1.7 7.0 0.04 2.83 0.69 95 1008.6
20260507173322 72 94 2.6 7.0 0.08 2.83 0.69 94 1009.1
20260507172315 72 180 2.6 4.3 0.12 2.83 0.69 95 1008.9
20260507171335 72 150 1.7 3.5 0.16 2.83 0.69 95 1009.1
20260507170335 72 275 2.6 5.2 0.20 2.83 0.69 96 1009.3
20260507165344 72 222 1.7 6.1 0.24 2.83 0.69 96 1009.6
20260507164322 71 134 2.6 4.3 0.24 2.80 0.68 96 1009.7
20260507163318 71 96 2.6 6.1 0.20 2.76 0.67 95 1009.7
20260507162335 70 139 3.5 12.2 0.20 2.72 0.66 95 1010.4
20260507161328 70 202 3.5 8.7 0.20 2.68 0.65 94 1010.4
20260507160321 70 177 3.5 9.6 0.24 2.64 0.64 94 1010.4
20260507155324 71 222 4.3 8.7 0.24 2.60 0.63 95 1010.4
20260507154347 71 140 4.3 8.7 0.28 2.56 0.62 95 1010.3
20260507153323 71 103 2.6 7.8 0.35 2.56 0.62 95 1010.3
20260507152344 71 191 2.6 5.2 0.35 2.52 0.61 95 1010.5
20260507151326 71 166 0.9 4.3 0.35 2.48 0.60 95 1010.5
20260507150321 71 212 1.7 3.5 0.28 2.40 0.58 95 1010.5
20260507145343 71 175 2.6 5.2 0.24 2.36 0.57 94 1010.7
20260507144317 71 215 2.6 4.3 0.16 2.28 0.55 94 1010.8
20260507143318 71 214 1.7 5.2 0.08 2.20 0.53 94 1010.9
20260507142314 71 168 2.6 6.1 0.04 2.17 0.52 94 1010.9
20260507141312 71 227 4.3 8.7 0.00 2.13 0.51 94 1011.2
20260507140314 71 225 4.3 10.4 0.00 2.13 0.51 94 1010.9
20260507135330 71 178 2.6 6.1 0.00 2.13 0.51 95 1010.8
20260507134313 71 235 2.6 7.8 0.00 2.13 0.51 95 1010.9
20260507133336 71 221 3.5 7.0 0.00 2.13 0.51 95 1010.5
20260507132310 71 190 2.6 6.1 0.00 2.13 0.51 96 1010.4
20260507131332 71 265 2.6 6.1 0.00 2.13 0.51 96 1010.4
20260507130327 70 121 2.6 5.2 0.00 2.13 0.51 95 1010.2
20260507125320 70 184 2.6 7.0 0.04 2.13 0.51 95 1010.3
20260507124325 71 148 3.5 6.1 0.08 2.13 0.51 96 1010.4
20260507123317 70 181 2.6 5.2 0.16 2.13 0.51 96 1010.6
20260507122310 70 138 3.5 7.0 0.20 2.13 0.51 96 1010.9
20260507121310 70 139 3.5 7.8 0.24 2.13 0.51 96 1011.1
20260507120327 70 93 4.3 10.4 0.28 2.13 0.51 96 1011.5
20260507115329 70 187 5.2 11.3 0.24 2.09 0.50 96 1011.3
20260507114321 70 158 3.5 7.8 0.20 2.01 0.48 96 1011.6
20260507113319 70 200 3.5 8.7 0.20 1.97 0.47 96 1011.5
20260507112322 70 134 4.3 9.6 0.16 1.93 0.46 96 1011.4
20260507111319 70 130 4.3 7.8 0.16 1.89 0.45 95 1011.3
20260507110321 70 165 5.2 19.1 0.16 1.85 0.44 96 1011.8
20260507105334 70 118 3.5 12.2 0.24 1.85 0.44 96 1011.3
20260507104315 70 99 5.2 9.6 0.28 1.81 0.43 96 1011.3
20260507103310 70 159 4.3 9.6 0.28 1.77 0.42 95 1011.3
20260507102309 70 121 5.2 11.3 0.35 1.77 0.42 95 1011.2
20260507101325 70 116 4.3 8.7 0.35 1.73 0.41 95 1011.0
20260507100327 70 96 5.2 11.3 0.35 1.69 0.40 95 1011.3
20260507095324 70 166 6.1 9.6 0.35 1.61 0.38 95 1010.9
20260507094319 70 129 2.6 6.1 0.39 1.54 0.36 95 1011.1
20260507093321 70 140 2.6 6.1 0.47 1.50 0.35 95 1011.6
20260507092315 70 167 1.7 6.1 0.59 1.42 0.33 95 1011.8
20260507091311 70 195 1.7 7.0 0.75 1.38 0.32 95 1011.4
20260507090314 70 111 2.6 6.1 0.83 1.34 0.31 94 1011.0
20260507085331 70 136 3.5 7.0 0.83 1.26 0.29 95 1011.1
20260507084321 70 96 1.7 6.1 0.75 1.14 0.26 94 1011.4
20260507083317 70 186 2.6 6.1 0.63 0.98 0.22 94 1012.2
20260507082319 70 244 2.6 6.1 0.47 0.83 0.18 94 1012.5
20260507081333 70 201 2.6 6.1 0.31 0.63 0.13 94 1012.8
20260507080312 70 143 1.7 4.3 0.20 0.51 0.10 94 1012.8
20260507075327 70 171 1.7 4.3 0.12 0.43 0.08 94 1011.9
20260507074330 70 128 1.7 4.3 0.08 0.39 0.07 94 1011.8
20260507073339 70 163 1.7 4.3 0.04 0.35 0.06 94 1012.1
20260507072316 70 178 1.7 3.5 0.04 0.35 0.06 93 1012.4
20260507071330 70 253 2.6 4.3 0.00 0.31 0.05 93 1012.6
20260507070332 70 216 1.7 3.5 0.00 0.31 0.05 93 1012.7
20260507065333 70 170 1.7 3.5 0.00 0.31 0.05 93 1012.6
20260507064313 70 153 0.9 4.3 0.00 0.31 0.05 93 1012.3
20260507063330 70 155 1.7 3.5 0.00 0.31 0.05 93 1012.5
20260507062323 70 133 1.7 4.3 0.00 0.31 0.05 93 1012.7
20260507061315 70 159 2.6 4.3 0.00 0.31 0.05 92 1012.7
20260507060316 70 136 2.6 4.3 0.04 0.31 0.05 92 1012.4
20260507055350 70 148 1.7 3.5 0.08 0.31 0.05 92 1012.4
20260507054322 70 65 0.9 4.3 0.20 0.31 0.05 92 1012.4
20260507053322 71 145 1.7 3.5 0.20 0.31 0.05 92 1012.9
20260507052311 71 73 1.7 3.5 0.20 0.31 0.05 91 1013.0
20260507051329 71 184 1.7 4.3 0.20 0.31 0.05 91 1013.8
20260507050325 71 144 2.6 4.3 0.16 0.28 0.04 90 1013.9
20260507045316 71 132 2.6 5.2 0.16 0.24 0.03 90 1013.8
20260507044327 72 148 2.6 4.3 0.04 0.12 0.00 89 1014.1
20260507043326 72 185 1.7 3.5 0.04 0.12 0.00 89 1013.9
20260507042317 72 211 1.7 3.5 0.04 0.12 0.00 88 1013.8
20260507041310 72 200 1.7 2.6 0.12 0.12 0.00 88 1013.6
20260507040308 72 237 0.9 2.6 0.12 0.12 0.00 88 1013.4
20260507035321 73 155 1.7 3.5 0.08 0.08 0.02 85 1013.2
20260507034321 73 197 1.7 2.6 0.08 0.08 0.02 83 1013.4
20260507033317 74 148 0.9 5.2 0.08 0.08 0.02 81 1013.3
20260507032318 75 184 2.6 4.3 0.04 0.04 0.01 77 1013.9
20260507031318 76 170 1.7 6.1 0.00 0.00 0.00 72 1014.2
20260507030320 76 132 3.5 6.1 0.00 0.00 0.00 69 1013.8
20260507025314 76 190 2.6 4.3 0.00 0.00 0.00 70 1013.6
20260507024311 76 196 0.9 4.3 0.00 0.00 0.00 70 1013.1
20260507023313 76 113 1.7 5.2 0.00 0.00 0.00 70 1013.2
20260507022309 76 159 2.6 4.3 0.00 0.00 0.00 69 1013.0
20260507021311 76 120 0.9 3.5 0.00 0.00 0.00 69 1013.1
20260507020328 77 153 1.7 6.1 0.00 0.00 0.00 68 1013.1
20260507015332 77 146 2.6 4.3 0.00 0.00 0.00 69 1013.1
20260507014325 77 152 2.6 4.3 0.00 0.00 0.00 68 1013.1
20260507013327 77 136 2.6 5.2 0.00 0.00 0.00 68 1013.1
20260507012323 77 150 1.7 4.3 0.00 0.00 0.00 67 1013.3
20260507011320 78 146 2.6 4.3 0.00 0.00 0.00 67 1013.1
20260507010321 78 128 1.7 7.0 0.00 0.00 0.00 66 1013.1
20260507005317 78 158 1.7 5.2 0.00 0.00 0.00 65 1013.1
20260507004313 79 163 3.5 5.2 0.00 0.00 0.00 65 1013.2
20260507003335 79 191 2.6 5.2 0.00 0.00 0.00 64 1013.1
20260507002319 80 191 2.6 5.2 0.00 0.00 0.00 63 1013.2
20260507001314 80 164 2.6 7.8 0.00 0.00 0.00 63 1013.2
20260507000309 80 266 2.6 7.8 0.00 0.00 0.00 62 1013.1
20260506235309 81 180 3.5 7.0 0.00 0.00 0.00 61 1012.9
20260506234353 81 99 2.6 7.0 0.00 0.00 0.00 60 1012.8
20260506233327 82 194 4.3 8.7 0.00 0.00 0.00 60 1012.7
20260506232324 82 163 3.5 8.7 0.00 0.00 0.00 59 1012.8
20260506231328 83 232 3.5 9.6 0.00 0.00 0.00 58 1012.8
20260506230343 83 196 5.2 8.7 0.00 0.00 0.00 57 1013.0
20260506225324 84 170 4.3 10.4 0.00 0.00 0.00 57 1012.8
20260506224346 83 173 3.5 7.8 0.00 0.00 0.00 58 1012.7
20260506223320 83 155 4.3 9.6 0.00 0.00 0.00 58 1012.7
20260506222316 83 190 3.5 9.6 0.00 0.00 0.00 57 1012.6
20260506221319 83 101 3.5 8.7 0.00 0.00 0.00 57 1012.6
20260506220314 84 180 4.3 8.7 0.00 0.00 0.00 56 1012.5
20260506215334 84 166 3.5 12.2 0.00 0.00 0.00 56 1012.6
20260506214309 84 130 6.1 12.2 0.00 0.00 0.00 55 1012.8
20260506213309 85 134 4.3 13.0 0.00 0.00 0.00 55 1012.9
20260506212330 85 175 6.1 10.4 0.00 0.00 0.00 55 1013.0
20260506211324 85 135 7.0 15.6 0.00 0.00 0.00 56 1012.8